Regional Weather Roundup
Issued by NWS State College, PA

Home | Current Version | Previous Version | Text Only | Print | Product List | Glossary On
Versions: 1 2 3 4 5 6 7 8 9 10 11 12 13 14 15 16 17 18 19 20 21 22 23 24 25 26 27 28 29 30 31 32 33 34 35 36 37 38 39 40 41 42 43 44 45 46 47 48 49 50
000
ASUS41 KCTP 172210
RWRCTP

REGIONAL WEATHER ROUNDUP
NATIONAL WEATHER SERVICE STATE COLLEGE PA
600 PM EDT THU AUG 17 2017

Note: "fair" indicates few or no clouds below 12,000 feet with no
significant weather and/or obstructions to visibility.

* = STATION THAT DOES NOT REPORT PRECIPITATION /E.G. RAIN...SNOW...ETC/
    THUNDER OR FOG.

PAZ002>004-007>009-013>016-020>023-029>032-172300-
WESTERN PENNSYLVANIA

CITY           SKY/WX    TMP DP  RH WIND       PRES   REMARKS
ERIE           LGT RAIN  78  75  90 S8        29.83R FOG
MEADVILLE      CLOUDY    76  74  93 CALM      29.87F
FRANKLIN*      CLOUDY    79  70  73 SE7       29.89F
NEW CASTLE     NOT AVBL
BEAVER COUNTY  SUNNY     82  70  65 S8        29.88F
BUTLER*        CLOUDY    84  71  65 VRB7      29.89F
PITTSBURGH INT CLOUDY    80  73  79 S6        29.89S
PITTSBURGH     LGT RAIN  77  72  84 MISG      29.90S
INDIANA*       MOSUNNY   84  72  65 W8        29.94F
LATROBE        PTSUNNY   84  68  58 SW8       29.92S
WASHINGTON CO* CLOUDY    72  66  83 CALM      29.93R THUNDER
$$

PAZ004>006-010>012-017>019-024>028-033>037-041-042-045-046-049>053-172300-
CENTRAL PENNSYLVANIA

CITY           SKY/WX    TMP DP  RH WIND       PRES   REMARKS
BRADFORD       MOSUNNY   80  67  64 S7        29.94F
DUBOIS         MOSUNNY   81  63  54 S6        29.93F
CLEARFIELD     MOSUNNY   84  69  60 VRB6      29.94S
JOHNSTOWN      MOSUNNY   81  69  67 S12       29.98S
ALTOONA        CLOUDY    81  70  69 S9        29.95F
STATE COLLEGE  MOSUNNY   81  70  69 S5        29.94F
WILLIAMSPORT   CLOUDY    83  70  64 S13       29.90F
SELINSGROVE    CLOUDY    83  72  69 S5        29.93F
FT INDIANTOWN  PTSUNNY   83  71  66 SE5       29.90F
CAPITAL CITY   MOSUNNY   85  71  63 SE9       29.92S
HARRISBURG     PTSUNNY   85  75  72 SE9       29.91F
YORK           MOSUNNY   83  74  74 SE6       29.93S
$$

PAZ038>040-043-044-047-048-054-055-060>062-067>071-172300-
EASTERN PENNSYLVANIA

CITY           SKY/WX    TMP DP  RH WIND       PRES   REMARKS
SCRANTON       PTSUNNY   81  65  58 VRB7      29.96F
MOUNT POCONO   PTSUNNY   76  64  66 SW7       30.03S
ALLENTOWN      PTSUNNY   85  64  49 S6        29.95F
QUAKERTOWN*    CLEAR     86  66  51 S3        29.97S
READING        MOSUNNY   85  71  63 S6        29.93F
LANCASTER      PTSUNNY   84  74  71 SE7       29.94S
COATESVILLE    PTCLDY    82  70  65 VRB3G13   29.98S
POTTSTOWN      MOSUNNY   83  67  58 S5        29.97S
BLUE BELL      CLOUDY    82  66  57 SE3       29.96S
DOYLESTOWN     CLOUDY    82  67  60 CALM      29.95F
WILLOW GROVE   NOT AVBL
NORTH PHILA    CLOUDY    84  70  62 SE10      29.97R
PHILADELPHIA   MOSUNNY   86  66  51 S12       29.95S
$$




USA.gov is the U.S. government's official web portal to all federal, state and local government web resources and services.